Weather History for New Delhi, India

Change the Weather History Date:

Monday, January 7, 2013

  Actual Average Record
Temperature  
Mean Temperature 42 °F -  
Max Temperature 51 °F 67 °F - (-1)
Min Temperature 33 °F 46 °F - (-1)
Degree Days  
Heating Degree Days 23    
Moisture  
Dew Point 40 °F    
Average Humidity 95    
Maximum Humidity 100    
Minimum Humidity 67    
Precipitation  
Precipitation 0.00 in - - ()
Sea Level Pressure  
Sea Level Pressure 30.06 in    
Wind  
Wind Speed 5 mph ()    
Max Wind Speed 9 mph    
Max Gust Speed -    
Visibility 0.5 miles    
Events Fog    
Averages and records for this station are not official NWS values.
T = Trace of Precipitation, MM = Missing Value Source: Averaged Metar Reports

Daily Weather History Graph

Daily Weather History Graph

Search for Another Location

Airport:

Trip Planner

Search our weather history database for the weather conditions in past years. The results will help you decide how hot, cold, wet, or windy it might be!

Date:

Astronomy

Jan. 07, 2013 Rise Set
Actual Time 7:15 AM IST 5:40 PM IST
Civil Twilight 6:49 AM IST 6:06 PM IST
Nautical Twilight 6:20 AM IST 6:35 PM IST
Astronomical Twilight 5:51 AM IST 7:04 PM IST
Moon 2:14 AM IST (1/7) 1:24 PM IST (1/7)
Length of Visible Light 11h 16m
Length of Day
10h 25m
Waning Crescent, 27% of the Moon is Illuminated
Jan 7
Waning Crescent
Jan 12
New
Jan 19
First Quarter
Jan 27
Full
Feb 3
Last Quarter

Hourly Weather History & Observations

Time (IST) Temp. Windchill Dew Point Humidity Pressure Visibility Wind Dir Wind Speed Gust Speed Precip Events Conditions
12:00 AM 41.0 °F 39.0 °F 41.0 °F 100% 30.06 in 0.2 mi WNW 3.5 mph - N/A Fog Fog
12:30 AM 41.0 °F 39.0 °F 41.0 °F 100% 30.06 in 0.2 mi WNW 3.5 mph - N/A Fog Fog
1:00 AM 41.0 °F - 41.0 °F 100% 30.04 in 0.2 mi WNW 2.3 mph - N/A Fog Fog
1:30 AM 41.0 °F - 41.0 °F 100% 30.04 in 0.2 mi SW 2.3 mph - N/A Fog Fog
2:00 AM 39.2 °F 35.9 °F 39.2 °F 100% 30.04 in 0.2 mi WSW 4.6 mph - N/A Fog Fog
2:30 AM 37.4 °F 34.9 °F 37.4 °F 100% 30.04 in 0.1 mi West 3.5 mph - N/A Fog Fog
3:00 AM 37.4 °F 33.8 °F 37.4 °F 100% 30.04 in - West 4.6 mph - N/A Fog Fog
3:30 AM 33.8 °F 28.6 °F 33.8 °F 100% 30.04 in - West 5.8 mph - N/A Fog Fog
4:00 AM 33.8 °F 28.6 °F 33.8 °F 100% 30.04 in - West 5.8 mph - N/A Fog Fog
4:30 AM 33.8 °F 28.6 °F 33.8 °F 100% 30.01 in - West 5.8 mph - N/A Fog Fog
5:00 AM 35.6 °F 30.7 °F 35.6 °F 100% 30.01 in - West 5.8 mph - N/A Fog Fog
5:30 AM 35.6 °F 30.7 °F 35.6 °F 100% 30.04 in - West 5.8 mph - N/A Fog Fog
6:00 AM 35.6 °F 30.7 °F 35.6 °F 100% 30.04 in - West 5.8 mph - N/A Fog Fog
6:30 AM 35.6 °F 30.7 °F 35.6 °F 100% 30.04 in - West 5.8 mph - N/A Fog Fog
7:00 AM 37.4 °F 32.8 °F 37.4 °F 100% 30.04 in 0.0 mi West 5.8 mph - N/A Fog Fog
7:30 AM 37.4 °F 32.8 °F 37.4 °F 100% 30.06 in 0.0 mi West 5.8 mph - N/A Fog Fog
8:00 AM 37.4 °F 31.4 °F 37.4 °F 100% 30.06 in 0.0 mi West 8.1 mph - N/A Fog Fog
8:30 AM 37.4 °F 32.1 °F 37.4 °F 100% 30.09 in 0.0 mi West 6.9 mph - N/A Fog Fog
9:00 AM 37.4 °F 32.1 °F 37.4 °F 100% 30.09 in 0.1 mi West 6.9 mph - N/A Fog Fog
9:30 AM 37.4 °F 32.1 °F 37.4 °F 100% 30.12 in 0.2 mi West 6.9 mph - N/A Fog Fog
10:00 AM 37.4 °F 33.8 °F 37.4 °F 100% 30.15 in 0.2 mi West 4.6 mph - N/A Fog Fog
10:30 AM 37.4 °F 32.8 °F 37.4 °F 100% 30.15 in 0.3 mi West 5.8 mph - N/A Fog Fog
11:00 AM 39.2 °F 35.0 °F 39.2 °F 100% 30.15 in 0.4 mi West 5.8 mph - N/A Fog Shallow Fog
12:00 PM 41.0 °F 38.0 °F 39.2 °F 93% 30.12 in 0.8 mi West 4.6 mph - N/A Fog Shallow Fog
1:00 PM 44.6 °F 40.2 °F 44.6 °F 100% 30.09 in 1.0 mi WNW 8.1 mph - N/A   Mist
1:30 PM 46.4 °F 42.9 °F 46.4 °F 100% 30.06 in 1.0 mi West 6.9 mph - N/A   Mist
2:00 PM 48.2 °F - 48.2 °F 100% 30.06 in 1.1 mi WNW 8.1 mph - N/A   Mist
2:30 PM 50.0 °F - 46.4 °F 87% 30.06 in 1.1 mi West 6.9 mph - N/A   Mist
3:00 PM 51.8 °F - 42.8 °F 71% 30.04 in 1.2 mi West 8.1 mph - N/A   Smoke
3:30 PM 51.8 °F - 42.8 °F 71% 30.04 in 1.2 mi WNW 9.2 mph - N/A   Smoke
4:00 PM 51.8 °F - 41.0 °F 67% 30.04 in 1.1 mi WNW 8.1 mph - N/A   Smoke
4:30 PM 51.8 °F - 41.0 °F 67% 30.04 in 1.1 mi West 8.1 mph - N/A   Smoke
5:00 PM 51.8 °F - 41.0 °F 67% 30.04 in 1.1 mi West 8.1 mph - N/A   Smoke
5:30 PM 48.2 °F - 42.8 °F 82% 30.04 in 1.1 mi West 6.9 mph - N/A   Mist
6:00 PM 46.4 °F 43.5 °F 42.8 °F 87% 30.04 in 1.1 mi West 5.8 mph - N/A   Mist
7:00 PM 44.6 °F 42.2 °F 42.8 °F 93% 30.06 in 0.7 mi West 4.6 mph - N/A   Mist
7:30 PM 44.6 °F 43.1 °F 42.8 °F 93% 30.06 in 0.6 mi West 3.5 mph - N/A Fog Shallow Fog
8:30 PM 42.8 °F 39.3 °F 42.8 °F 100% 30.09 in 0.5 mi West 5.8 mph - N/A Fog Shallow Fog
9:00 PM 41.0 °F 38.0 °F 41.0 °F 100% 30.09 in 0.4 mi West 4.6 mph - N/A Fog Shallow Fog
9:30 PM 41.0 °F 39.0 °F 41.0 °F 100% 30.09 in 0.4 mi West 3.5 mph - N/A Fog Shallow Fog
10:00 PM 41.0 °F 38.0 °F 41.0 °F 100% 30.09 in 0.4 mi West 4.6 mph - N/A Fog Shallow Fog
10:30 PM 41.0 °F 38.0 °F 41.0 °F 100% 30.06 in 0.4 mi West 4.6 mph - N/A Fog Shallow Fog
11:00 PM 39.2 °F 35.0 °F 39.2 °F 100% 30.06 in 0.2 mi West 5.8 mph - N/A Fog Fog
11:30 PM 39.2 °F 35.0 °F 39.2 °F 100% 30.06 in 0.2 mi West 5.8 mph - N/A Fog Fog